PLATFORM,ARGOS_ID,DATE (YYYY/MM/DD HH:MI:SS),LATITUDE (degree_north),LONGITUDE (degree_east),DEPH (meter),EWCT (meter/second),NSCT (meter/second),WSTN_MODEL (newton/m2),WSPN_MODEL (meter/second),CO00 (none),WSTE_MODEL (newton/m2),WSPE_MODEL (meter/second),TEMP LEVEL0 (degree_Celsius),EWCT LEVEL1 (meter/second),NSCT LEVEL1 (meter/second),QC,SVP_RCBN_Number,SVP_GNRL_ImmPercent,SVP_GNRL_BattVolt
61941,72511,2007/10/10 15:04:15,43.6171,7.4128,,,,,,,,,21.08,,,0011199999999199,9,0,12.4
61941,72511,2007/10/10 16:00:15,43.6160,7.4018,,,,,,,,,21.08,-0.263548,-0.036403,0011199999999100,8,0,12.4
61941,72511,2007/10/10 17:00:16,43.6130,7.3902,,,,,,,,,21.08,-0.259332,-0.092637,0011199999999100,7,0,12.4
61941,72511,2007/10/10 18:00:40,43.6097,7.3795,,,,,,,,,21,-0.237706,-0.101254,0011199999999100,5,1,12.4
61941,72511,2007/10/10 19:00:16,43.6055,7.3694,,,,,,,,,21,-0.227403,-0.130598,0011199999999100,3,1,12.4
61941,72511,2007/10/10 20:00:16,43.6007,7.3587,,,,,,,,,21,-0.239324,-0.14826,0011199999999100,4,3,12.4
61941,72511,2007/10/10 21:00:17,43.5955,7.3478,,,,,,,,,20.92,-0.243749,-0.16057,0011199999999100,4,0,12.4
61941,72511,2007/10/10 22:00:35,43.5905,7.3374,,,,,,,,,20.92,-0.231495,-0.153669,0011199999999100,1,1,12.3
61941,72511,2007/10/10 23:00:17,43.5855,7.3269,,,,,,,,,20.92,-0.23609,-0.155213,0011199999999100,1,1,12.4
61941,72511,2007/10/11 00:00:12,43.5803,7.3168,,,,,,,,,20.92,-0.226294,-0.160838,0011199999999100,3,3,12.4
61941,72511,2007/10/11 01:00:11,43.5745,7.3063,,,,,,,,,20.92,-0.235016,-0.179197,0011199999999100,3,4,12.4
61941,72511,2007/10/11 02:00:40,43.5683,7.2951,,,,,,,,,20.92,-0.248636,-0.189972,0011199999999100,6,3,12.4
61941,72511,2007/10/11 03:00:11,43.5621,7.2838,,,,,,,,,20.92,-0.254957,-0.193058,0011199999999100,1,6,12.4
61941,72511,2007/10/11 04:00:16,43.5556,7.2720,,,,,,,,,20.84,-0.263755,-0.20049,0011199999999100,6,3,12.4
61941,72511,2007/10/11 05:00:40,43.5492,7.2601,,,,,,,,,20.84,-0.264624,-0.196371,0011199999999100,5,4,12.4
61941,72511,2007/10/11 06:00:16,43.5423,7.2491,,,,,,,,,20.84,-0.247921,-0.214554,0011199999999100,4,3,12.4
61941,72511,2007/10/11 07:00:17,43.5349,7.2390,,,,,,,,,20.84,-0.226083,-0.228504,0011199999999100,4,3,12.4
61941,72511,2007/10/11 08:00:40,43.5273,7.2280,,,,,,,,,20.84,-0.244764,-0.233255,0011199999999100,11,4,12.4
61941,72511,2007/10/11 09:00:12,43.5200,7.2171,,,,,,,,,20.84,-0.246032,-0.227246,0011199999999100,6,0,12.4
61941,72511,2007/10/11 10:00:16,43.5123,7.2050,,,,,,,,,20.92,-0.270727,-0.23757,0011199999999100,4,0,12.4
61941,72511,2007/10/11 11:00:40,43.5049,7.1932,,,,,,,,,21.32,-0.262591,-0.227054,0011199999999100,4,0,12.4
61941,72511,2007/10/11 12:00:11,43.4973,7.1816,,,,,,,,,21.24,-0.262004,-0.236651,0011199999999100,3,0,12.4
61941,72511,2007/10/11 13:00:06,43.4893,7.1688,,,,,,,,,21.08,-0.287215,-0.247444,0011199999999100,5,11,12.4
61941,72511,2007/10/11 14:00:40,43.4813,7.1556,,,,,,,,,21,-0.29305,-0.244788,0011199999999100,3,15,12.4
61941,72511,2007/10/11 15:00:11,43.4738,7.1420,,,,,,,,,20.92,-0.307297,-0.233537,0011199999999100,4,23,12.4
61941,72511,2007/10/11 16:00:16,43.4663,7.1288,,,,,,,,,20.92,-0.295482,-0.231335,0011199999999100,4,23,12.4
61941,72511,2007/10/11 17:00:58,43.4578,7.1165,,,,,,,,,20.92,-0.272574,-0.259516,0011199999999100,3,22,12.4
61941,72511,2007/10/11 18:00:10,43.4493,7.1046,,,,,,,,,20.92,-0.27043,-0.266091,0011199999999100,4,33,12.4
61941,72511,2007/10/11 19:00:16,43.4401,7.0925,,,,,,,,,20.92,-0.270897,-0.283692,0011199999999100,3,36,12.4
61941,72511,2007/10/11 20:00:58,43.4317,7.0801,,,,,,,,,20.84,-0.274909,-0.256463,0011199999999100,3,17,12.4
61941,72511,2007/10/11 21:00:12,43.4226,7.0675,,,,,,,,,20.84,-0.286302,-0.284714,0011199999999100,1,15,12.4
61941,72511,2007/10/11 22:00:12,43.4141,7.0545,,,,,,,,,20.84,-0.291658,-0.262544,0011199999999100,1,7,12.4
61941,72511,2007/10/11 23:00:40,43.4054,7.0416,,,,,,,,,20.84,-0.287222,-0.266647,0011199999999100,1,6,12.4
61941,72511,2007/10/12 00:00:16,43.3964,7.0297,,,,,,,,,20.84,-0.268849,-0.279853,0011199999999100,5,4,12.4
61941,72511,2007/10/12 01:00:11,43.3873,7.0169,,,,,,,,,20.84,-0.287697,-0.281467,0011199999999100,4,6,12.4
61941,72511,2007/10/12 02:00:40,43.3782,7.0044,,,,,,,,,20.84,-0.278363,-0.27883,0011199999999100,5,1,12.4
61941,72511,2007/10/12 03:00:11,43.3696,6.9921,,,,,,,,,20.84,-0.278399,-0.26779,0011199999999100,4,4,12.4
61941,72511,2007/10/12 04:00:11,43.3605,6.9800,,,,,,,,,20.84,-0.271706,-0.281076,0011199999999100,3,11,12.4
61941,72511,2007/10/12 05:00:58,43.3512,6.9687,,,,,,,,,20.84,-0.250509,-0.283552,0011199999999100,6,11,12.4
61941,72511,2007/10/12 06:00:40,43.3417,6.9577,,,,,,,,,20.76,-0.248322,-0.294906,0011199999999100,1,12,12.4
61941,72511,2007/10/12 07:00:16,43.3315,6.9467,,,,,,,,,20.76,-0.248779,-0.317167,0011199999999100,4,9,12.4
61941,72511,2007/10/12 08:00:23,43.3211,6.9350,,,,,,,,,20.76,-0.262381,-0.320606,0011199999999100,5,15,12.4
61941,72511,2007/10/12 09:00:40,43.3100,6.9245,,,,,,,,,20.76,-0.234861,-0.34124,0011199999999100,1,7,12.4
61941,72511,2007/10/12 10:00:11,43.2983,6.9139,,,,,,,,,20.76,-0.240197,-0.364318,0011199999999100,1,4,12.4
61941,72511,2007/10/12 11:00:10,43.2869,6.9034,,,,,,,,,20.84,-0.236125,-0.352215,0011199999999100,1,0,12.4
61941,72511,2007/10/12 12:00:40,43.2742,6.8938,,,,,,,,,20.84,-0.214084,-0.389029,0011199999999100,6,0,12.4
61941,72511,2007/10/12 13:00:06,43.2616,6.8838,,,,,,,,,20.84,-0.227054,-0.392893,0011199999999100,1,1,12.4
61941,72511,2007/10/12 14:00:12,43.2483,6.8741,,,,,,,,,20.84,-0.217845,-0.41012,0011199999999100,4,6,12.4
61941,72511,2007/10/12 15:00:12,43.2354,6.8637,,,,,,,,,20.84,-0.234006,-0.398448,0011199999999100,3,9,12.4
61941,72511,2007/10/12 16:00:36,43.2222,6.8537,,,,,,,,,20.84,-0.223563,-0.405015,0011199999999100,4,6,12.4
61941,72511,2007/10/12 17:00:12,43.2099,6.8433,,,,,,,,,20.84,-0.235676,-0.382466,0011199999999100,1,4,12.4
61941,72511,2007/10/12 18:00:40,43.1972,6.8317,,,,,,,,,20.76,-0.259155,-0.389244,0011199999999100,6,9,12.4
61941,72511,2007/10/12 19:00:40,43.1856,6.8199,,,,,,,,,20.76,-0.265726,-0.358295,0011199999999100,3,1,12.4
61941,72511,2007/10/12 20:00:12,43.1743,6.8087,,,,,,,,,20.76,-0.25424,-0.351764,0011199999999100,1,1,12.4
61941,72511,2007/10/12 21:00:12,43.1644,6.7976,,,,,,,,,20.76,-0.250053,-0.305786,0011199999999100,1,0,12.4
61941,72511,2007/10/12 22:00:35,43.1535,6.7879,,,,,,,,,20.76,-0.217165,-0.334536,0011199999999100,1,0,12.4
61941,72511,2007/10/12 23:00:06,43.1424,6.7792,,,,,,,,,20.76,-0.197648,-0.345635,0011199999999100,1,0,12.4
61941,72511,2007/10/13 00:00:11,43.1304,6.7714,,,,,,,,,20.76,-0.175564,-0.370136,0011199999999100,1,1,12.4
61941,72511,2007/10/13 01:00:16,43.1176,6.7631,,,,,,,,,20.68,-0.186856,-0.394811,0011199999999100,5,6,12.4
61941,72511,2007/10/13 02:00:40,43.1049,6.7541,,,,,,,,,20.36,-0.201595,-0.389673,0011199999999100,7,3,12.4
61941,72511,2007/10/13 03:00:10,43.0923,6.7446,,,,,,,,,20.04,-0.216058,-0.392453,0011199999999100,1,9,12.4
61941,72511,2007/10/13 04:00:28,43.0797,6.7333,,,,,,,,,19.88,-0.253638,-0.387246,0011199999999100,1,11,12.4
61941,72511,2007/10/13 05:00:40,43.0680,6.7224,,,,,,,,,20.04,-0.245114,-0.360183,0011199999999100,3,14,12.4
61941,72511,2007/10/13 06:00:12,43.0574,6.7121,,,,,,,,,20.12,-0.234258,-0.329974,0011199999999100,3,9,12.4
61941,72511,2007/10/13 07:00:12,43.0473,6.7011,,,,,,,,,20.04,-0.248275,-0.311964,0011199999999100,1,7,12.4
61941,72511,2007/10/13 08:00:40,43.0374,6.6896,,,,,,,,,20.04,-0.257599,-0.303426,0011199999999100,1,7,12.4
61941,72511,2007/10/13 09:00:11,43.0266,6.6770,,,,,,,,,20.12,-0.286792,-0.336294,0011199999999100,4,12,12.4
61941,72511,2007/10/13 10:00:10,43.0176,6.6643,,,,,,,,,20.2,-0.286865,-0.278065,0011199999999100,1,11,12.4
61941,72511,2007/10/13 11:00:40,43.0083,6.6502,,,,,,,,,20.28,-0.315815,-0.28488,0011199999999100,5,9,12.4
61941,72511,2007/10/13 12:00:10,43.0005,6.6366,,,,,,,,,20.36,-0.309779,-0.242947,0011199999999100,5,6,12.4
61941,72511,2007/10/13 13:00:40,42.9929,6.6230,,,,,,,,,20.36,-0.304697,-0.232805,0011199999999100,1,4,12.4
61941,72511,2007/10/13 14:00:16,42.9856,6.6088,,,,,,,,,20.28,-0.322983,-0.226992,0011199999999100,1,3,12.4
61941,72511,2007/10/13 15:00:16,42.9783,6.5943,,,,,,,,,20.28,-0.327646,-0.225479,0011199999999100,6,7,12.4
61941,72511,2007/10/13 16:00:39,42.9712,6.5809,,,,,,,,,20.28,-0.300904,-0.217909,0011199999999100,4,1,12.4
61941,72511,2007/10/13 17:00:12,42.9642,6.5671,,,,,,,,,20.28,-0.314258,-0.217846,0011199999999100,1,0,12.4
61941,72511,2007/10/13 18:00:40,42.9572,6.5534,,,,,,,,,20.28,-0.307286,-0.214544,0011199999999100,3,3,12.4
61941,72511,2007/10/13 19:00:11,42.9506,6.5384,,,,,,,,,20.52,-0.341853,-0.205513,0011199999999100,6,1,12.4
61941,72511,2007/10/13 20:00:16,42.9437,6.5234,,,,,,,,,20.52,-0.338666,-0.212828,0011199999999100,3,7,12.4
61941,72511,2007/10/13 21:00:16,42.9367,6.5082,,,,,,,,,20.52,-0.343697,-0.216212,0011199999999100,4,3,12.4
61941,72511,2007/10/13 22:00:40,42.9292,6.4920,,,,,,,,,20.52,-0.363926,-0.230122,0011199999999100,1,3,12.4
61941,72511,2007/10/13 23:00:06,42.9216,6.4759,,,,,,,,,20.52,-0.367607,-0.236983,0011199999999100,1,3,12.4
61941,72511,2007/10/14 00:00:16,42.9136,6.4584,,,,,,,,,20.52,-0.394752,-0.246415,0011199999999100,5,6,12.4
61941,72511,2007/10/14 01:00:40,42.9065,6.4397,,,,,,,,,20.44,-0.420243,-0.217849,0011199999999100,4,9,12.4
61941,72511,2007/10/14 02:00:16,42.9007,6.4204,,,,,,,,,20.36,-0.439595,-0.18035,0011199999999100,3,14,12.4
61941,72511,2007/10/14 03:00:11,42.8965,6.4003,,,,,,,,,20.36,-0.455434,-0.129908,0011199999999100,4,31,12.4
61941,72511,2007/10/14 04:00:39,42.8935,6.3805,,,,,,,,,20.28,-0.444581,-0.091947,0011199999999100,1,57,12.4
61941,72511,2007/10/14 05:00:16,42.8912,6.3614,,,,,,,,,20.28,-0.434997,-0.071498,0011199999999100,1,88,12.4
61941,72511,2007/10/14 06:00:22,42.8890,6.3425,,,,,,,,,20.28,-0.426996,-0.067839,0011199999999100,3,90,12.4
61941,72511,2007/10/14 07:00:16,42.8876,6.3236,,,,,,,,,20.28,-0.428434,-0.043315,0011199999999100,1,93,12.4
61941,72511,2007/10/14 08:01:42,42.8862,6.3046,,,,,,,,,20.2,-0.419961,-0.042234,0011199999999100,3,98,12.4
61941,72511,2007/10/14 09:00:14,42.8844,6.2865,,,,,,,,,20.12,-0.4199,-0.056991,0011199999999100,1,100,12.4
61941,72511,2007/10/14 10:00:39,42.8826,6.2674,,,,,,,,,20.12,-0.429299,-0.055214,0011199999999100,1,100,12.3
61941,72511,2007/10/14 11:00:06,42.8808,6.2479,,,,,,,,,20.12,-0.445429,-0.056112,0011199999999100,1,100,12.3
61941,72511,2007/10/14 12:00:12,42.8794,6.2283,,,,,,,,,20.12,-0.442882,-0.043171,0011199999999100,5,100,12.3
61941,72511,2007/10/14 13:00:39,42.8795,6.2096,,,,,,,,,20.12,-0.420104,0.003066,0011199999999100,5,100,12.3
61941,72511,2007/10/14 14:00:10,42.8797,6.1919,,,,,,,,,20.12,-0.403873,0.006228,0011199999999100,3,100,12.3
61941,72511,2007/10/14 15:00:12,42.8804,6.1736,,,,,,,,,20.12,-0.413967,0.021609,0011199999999100,6,100,12.3
61941,72511,2007/10/14 16:00:40,42.8813,6.1552,,,,,,,,,20.04,-0.413241,0.027584,0011199999999100,6,98,12.3
61941,72511,2007/10/14 17:00:12,42.8826,6.1373,,,,,,,,,20.04,-0.408307,0.040468,0011199999999100,3,95,12.3
61941,72511,2007/10/14 18:00:16,42.8835,6.1201,,,,,,,,,20.04,-0.388849,0.027768,0011199999999100,1,90,12.3
61941,72511,2007/10/14 19:00:40,42.8832,6.1027,,,,,,,,,20.04,-0.391198,-0.009205,0011199999999100,1,100,12.3
61941,72511,2007/10/14 20:00:10,42.8816,6.0851,,,,,,,,,20.04,-0.401686,-0.049835,0011199999999100,4,100,12.3
61941,72511,2007/10/14 21:00:16,42.8810,6.0673,,,,,,,,,19.88,-0.402202,-0.018502,0011199999999100,1,100,12.3
61941,72511,2007/10/14 22:00:40,42.8805,6.0490,,,,,,,,,19.8,-0.411449,-0.015341,0011199999999100,3,100,12.3
61941,72511,2007/10/14 23:00:11,42.8798,6.0311,,,,,,,,,19.72,-0.408433,-0.021797,0011199999999100,1,100,12.3
61941,72511,2007/10/15 00:00:17,42.8802,6.0143,,,,,,,,,19.64,-0.379614,0.012334,0011199999999100,3,100,12.3
61941,72511,2007/10/15 01:00:22,42.8806,5.9974,,,,,,,,,19.64,-0.381977,0.012338,0011199999999100,1,100,12.3
61941,72511,2007/10/15 02:00:40,42.8812,5.9804,,,,,,,,,19.72,-0.382854,0.01844,0011199999999100,4,100,12.3
61941,72511,2007/10/15 03:00:11,42.8827,5.9639,,,,,,,,,19.8,-0.376478,0.046707,0011199999999100,6,100,12.3
61941,72511,2007/10/15 04:00:11,42.8837,5.9472,,,,,,,,,19.8,-0.377964,0.030887,0011199999999100,4,100,12.3
61941,72511,2007/10/15 05:01:04,43.0238,5.9192,,,,,,,,,19.8,-0.623803,4.26455,0014499999999400,1,100,12.3
61941,72511,2007/10/15 06:00:15,42.8853,5.9135,,,,,,,,,19.72,-0.130634,-4.33695,0014499999999400,1,100,12.3
61941,72511,2007/10/15 07:00:40,42.8858,5.8952,,,,,,,,,19.64,-0.411304,0.015337,0011199999999100,4,100,12.3
61941,72511,2007/10/15 08:00:06,42.8868,5.8758,,,,,,,,,19.64,-0.443236,0.031182,0011199999999100,3,100,12.3
61941,72511,2007/10/15 09:00:11,42.8891,5.8566,,,,,,,,,19.64,-0.433909,0.070943,0011199999999100,1,100,12.3
61941,72511,2007/10/15 10:01:04,42.8917,5.8367,,,,,,,,,19.64,-0.443802,0.079142,0011199999999100,1,100,12.3
61941,72511,2007/10/15 11:00:17,42.8955,5.8168,,,,,,,,,19.64,-0.456269,0.118925,0011199999999100,1,100,12.3
61941,72511,2007/10/15 12:00:17,42.9001,5.7976,,,,,,,,,19.64,-0.434442,0.142082,0011199999999100,4,100,12.3
61941,72511,2007/10/15 13:01:04,42.9057,5.7785,,,,,,,,,19.72,-0.426575,0.170741,0011199999999100,4,100,12.3
61941,72511,2007/10/15 15:00:16,42.9169,5.7426,,,,,,,,,19.64,-0.408795,0.174131,0011199999999100,1,100,12.2
61941,72511,2007/10/15 16:01:04,42.9221,5.7242,,,,,,,,,19.56,-0.410718,0.158502,0011199999999100,4,100,12.3
61941,72511,2007/10/15 17:00:10,42.9271,5.7056,,,,,,,,,19.56,-0.42709,0.156789,0011199999999100,1,100,12.3
61941,72511,2007/10/15 18:00:11,42.9320,5.6866,,,,,,,,,19.56,-0.429576,0.151307,0011199999999100,1,100,12.3
61941,72511,2007/10/15 19:01:09,42.9384,5.6675,,,,,,,,,19.48,-0.425069,0.194546,0011199999999100,1,100,12.3
61941,72511,2007/10/15 20:00:12,42.9449,5.6505,,,,,,,,,19.48,-0.390573,0.203999,0011199999999100,1,100,12.3
61941,72511,2007/10/15 21:00:16,42.9511,5.6337,,,,,,,,,19.48,-0.379406,0.19129,0011199999999100,1,100,12.3
61941,72511,2007/10/15 22:00:41,42.9564,5.6176,,,,,,,,,19.32,-0.361457,0.162575,0011199999999100,1,100,12.3
61941,72511,2007/10/15 23:00:29,42.9606,5.6016,,,,,,,,,19.32,-0.362888,0.130161,0011199999999100,1,100,12.3
61941,72511,2007/10/16 00:00:13,42.9637,5.5852,,,,,,,,,19.32,-0.372354,0.096179,0011199999999100,5,100,12.3
61941,72511,2007/10/16 01:00:40,42.9670,5.5686,,,,,,,,,19.24,-0.372407,0.10117,0011199999999100,3,100,12.3
61941,72511,2007/10/16 02:00:16,42.9703,5.5514,,,,,,,,,19.24,-0.39135,0.102613,0011199999999100,5,100,12.3
61941,72511,2007/10/16 03:00:16,42.9731,5.5324,,,,,,,,,19.56,-0.429401,0.086485,0011199999999100,5,100,12.3
61941,72511,2007/10/16 04:01:11,42.9762,5.5114,,,,,,,,,19.64,-0.467437,0.09431,0011199999999100,5,100,12.3
61941,72511,2007/10/16 05:00:11,42.9791,5.4904,,,,,,,,,19.72,-0.482599,0.091092,0011199999999100,6,100,12.3
61941,72511,2007/10/16 06:00:11,42.9821,5.4687,,,,,,,,,19.72,-0.490351,0.092662,0011199999999100,1,100,12.3
61941,72511,2007/10/16 07:00:17,42.9850,5.4463,,,,,,,,,19.64,-0.505302,0.089425,0011199999999100,1,100,12.3
61941,72511,2007/10/16 08:00:40,42.9884,5.4240,,,,,,,,,19.64,-0.50066,0.104351,0011199999999100,1,100,12.3
61941,72511,2007/10/16 09:00:16,42.9912,5.4025,,,,,,,,,19.56,-0.489019,0.087065,0011199999999100,1,100,12.3
61941,72511,2007/10/16 10:00:17,42.9944,5.3815,,,,,,,,,19.48,-0.474307,0.098812,0011199999999100,1,100,12.3
61941,72511,2007/10/16 11:01:33,42.9975,5.3609,,,,,,,,,19.32,-0.455756,0.093772,0011199999999100,1,100,12.3
61941,72511,2007/10/16 12:00:11,43.0001,5.3419,,,,,,,,,19.32,-0.439217,0.082179,0011199999999100,4,100,12.3
61941,72511,2007/10/16 13:00:11,43.0018,5.3237,,,,,,,,,19.32,-0.411126,0.052509,0011199999999100,1,100,12.3
61941,72511,2007/10/16 14:00:39,43.0025,5.3056,,,,,,,,,19.32,-0.405703,0.021454,0011199999999100,5,100,12.3
61941,72511,2007/10/16 15:00:17,43.0024,5.2874,,,,,,,,,19.32,-0.413643,-0.003108,0011199999999100,4,100,12.3
61941,72511,2007/10/16 16:00:23,43.0014,5.2684,,,,,,,,,19.32,-0.428476,-0.030836,0011199999999100,3,100,12.3
61941,72511,2007/10/16 17:00:17,42.9996,5.2502,,,,,,,,,19.32,-0.411815,-0.05569,0011199999999100,5,100,12.3
61941,72511,2007/10/16 18:00:40,42.9976,5.2312,,,,,,,,,19.24,-0.426489,-0.061383,0011199999999100,3,100,12.3
61941,72511,2007/10/16 19:00:17,42.9955,5.2137,,,,,,,,,19.24,-0.397883,-0.065281,0011199999999100,3,100,12.3
61941,72511,2007/10/16 20:00:11,42.9932,5.1955,,,,,,,,,19.24,-0.411856,-0.07116,0011199999999100,1,100,12.3
61941,72511,2007/10/16 21:01:10,42.9905,5.1762,,,,,,,,,19.24,-0.429008,-0.082051,0011199999999100,1,100,12.3
61941,72511,2007/10/16 22:00:14,42.9878,5.1574,,,,,,,,,19.24,-0.431473,-0.084714,0011199999999100,1,100,12.3
61941,72511,2007/10/16 23:00:39,42.9854,5.1390,,,,,,,,,19.24,-0.412873,-0.073619,0011199999999100,4,100,12.3
61941,72511,2007/10/17 00:00:16,42.9829,5.1209,,,,,,,,,19.24,-0.411608,-0.077715,0011199999999100,1,100,12.3
61941,72511,2007/10/17 01:00:16,42.9814,5.1032,,,,,,,,,19.24,-0.399953,-0.046331,0011199999999100,3,100,12.3
61941,72511,2007/10/17 02:01:03,42.9802,5.0855,,,,,,,,,19.24,-0.394808,-0.036587,0011199999999100,1,100,12.3
61941,72511,2007/10/17 03:00:11,42.9791,5.0687,,,,,,,,,19.24,-0.385196,-0.034474,0011199999999100,4,100,12.3
61941,72511,2007/10/17 04:00:12,42.9778,5.0526,,,,,,,,,19.24,-0.36372,-0.040143,0011199999999100,10,100,12.3
61941,72511,2007/10/17 05:01:34,42.9762,5.0362,,,,,,,,,19.24,-0.362356,-0.048319,0011199999999100,4,100,12.3
61941,72511,2007/10/17 06:00:11,42.9741,5.0196,,,,,,,,,19.24,-0.383993,-0.066394,0011199999999100,1,100,12.3
61941,72511,2007/10/17 07:00:22,42.9713,5.0037,,,,,,,,,19.24,-0.358241,-0.086221,0011199999999100,1,100,12.3
61941,72511,2007/10/17 08:00:59,42.9690,4.9866,,,,,,,,,19.32,-0.382539,-0.070318,0011199999999100,4,100,12.3
61941,72511,2007/10/17 09:00:16,42.9672,4.9702,,,,,,,,,19.32,-0.375144,-0.05627,0011199999999100,1,100,12.3
61941,72511,2007/10/17 10:00:25,42.9657,4.9537,,,,,,,,,19.4,-0.372003,-0.046216,0011199999999100,1,100,12.3
61941,72511,2007/10/17 11:00:36,42.9643,4.9371,,,,,,,,,19.48,-0.374059,-0.043111,0011199999999100,1,100,12.3
61941,72511,2007/10/17 12:00:40,42.9629,4.9225,,,,,,,,,19.48,-0.329638,-0.043194,0011199999999100,5,100,12.3
61941,72511,2007/10/17 13:00:16,42.9621,4.9082,,,,,,,,,19.48,-0.325399,-0.024876,0011199999999100,1,100,12.3
61941,72511,2007/10/17 14:00:17,42.9608,4.8948,,,,,,,,,19.48,-0.302807,-0.040143,0011199999999100,1,100,12.3
61941,72511,2007/10/17 15:00:11,42.9591,4.8812,,,,,,,,,19.48,-0.307933,-0.052596,0011199999999100,4,100,12.3
61941,72511,2007/10/17 16:00:40,42.9575,4.8681,,,,,,,,,19.48,-0.293759,-0.049025,0011199999999100,4,98,12.3
61941,72511,2007/10/17 17:00:16,42.9563,4.8559,,,,,,,,,19.48,-0.277638,-0.037314,0011199999999100,4,80,12.3
61941,72511,2007/10/17 18:00:11,42.9543,4.8434,,,,,,,,,19.48,-0.282969,-0.061861,0011199999999100,1,58,12.3
61941,72511,2007/10/17 19:00:40,42.9526,4.8298,,,,,,,,,19.4,-0.304995,-0.052089,0011199999999100,5,36,12.3
61941,72511,2007/10/17 20:00:11,42.9506,4.8170,,,,,,,,,19.4,-0.291725,-0.062277,0011199999999100,4,9,12.3
61941,72511,2007/10/17 21:00:11,42.9487,4.8033,,,,,,,,,19.4,-0.309732,-0.058686,0011199999999100,3,22,12.3
61941,72511,2007/10/17 22:00:40,42.9479,4.7899,,,,,,,,,19.4,-0.300535,-0.024513,0011199999999100,1,36,12.3
61941,72511,2007/10/17 23:00:13,42.9466,4.7758,,,,,,,,,19.4,-0.321197,-0.040457,0011199999999100,1,33,12.3
61941,72511,2007/10/18 00:00:16,42.9456,4.7615,,,,,,,,,19.4,-0.323046,-0.030862,0011199999999100,1,57,12.3
61941,72511,2007/10/18 01:00:40,42.9452,4.7472,,,,,,,,,19.4,-0.321178,-0.012273,0011199999999100,1,90,12.3
61941,72511,2007/10/18 02:00:07,42.9451,4.7332,,,,,,,,,19.32,-0.319466,-0.003117,0011199999999100,1,100,12.3
61941,72511,2007/10/18 03:00:11,42.9462,4.7198,,,,,,,,,19.32,-0.302633,0.033939,0011199999999100,1,100,12.3
61941,72511,2007/10/18 04:00:40,42.9477,4.7071,,,,,,,,,19.32,-0.284842,0.045961,0011199999999100,1,100,12.3
61941,72511,2007/10/18 05:00:11,42.9494,4.6954,,,,,,,,,19.24,-0.266669,0.052935,0011199999999100,5,100,12.3
61941,72511,2007/10/18 06:00:17,42.9512,4.6840,,,,,,,,,19.24,-0.257302,0.055505,0011199999999100,1,100,12.3
61941,72511,2007/10/18 07:00:11,42.9529,4.6733,,,,,,,,,19.24,-0.242302,0.052596,0011199999999100,1,100,12.3
61941,72511,2007/10/18 08:02:58,42.9551,4.6623,,,,,,,,,19.16,-0.237648,0.06494,0011199999999100,1,100,12.3
61941,72511,2007/10/18 09:00:11,42.9570,4.6526,,,,,,,,,19.16,-0.229943,0.061541,0011199999999100,1,100,12.3
61941,72511,2007/10/18 10:02:11,42.9591,4.6430,,,,,,,,,19.08,-0.210009,0.062771,0011199999999100,3,100,12.3
61941,72511,2007/10/18 11:01:09,42.9611,4.6334,,,,,,,,,19.08,-0.220804,0.062858,0011199999999100,1,100,12.3
61941,72511,2007/10/18 12:00:22,42.9629,4.6242,,,,,,,,,19,-0.210704,0.056333,0011199999999100,3,100,12.3
61941,72511,2007/10/18 13:01:29,42.9647,4.6147,,,,,,,,,19,-0.210805,0.054582,0011199999999100,5,100,12.3
61941,72511,2007/10/18 14:01:32,42.9671,4.6061,,,,,,,,,19.16,-0.194217,0.074068,0011199999999100,1,100,12.3
61941,72511,2007/10/18 15:00:12,42.9698,4.5978,,,,,,,,,19.16,-0.191854,0.085292,0011199999999100,3,100,12.3
61941,72511,2007/10/18 16:00:11,42.9724,4.5902,,,,,,,,,19.08,-0.17181,0.08033,0011199999999100,1,100,12.3
61941,72511,2007/10/18 17:02:02,42.9745,4.5829,,,,,,,,,19.56,-0.160041,0.062924,0011199999999100,1,100,12.3
61941,72511,2007/10/18 18:00:23,42.9760,4.5769,,,,,,,,,19.64,-0.139427,0.047641,0011199999999100,1,100,12.3
61941,72511,2007/10/18 19:00:16,42.9781,4.5712,,,,,,,,,19.56,-0.12906,0.06499,0011199999999100,1,100,12.3
61941,72511,2007/10/18 20:01:00,42.9796,4.5651,,,,,,,,,19.56,-0.13618,0.045772,0011199999999100,3,100,12.3
61941,72511,2007/10/18 21:00:29,42.9805,4.5577,,,,,,,,,19.56,-0.16867,0.02804,0011199999999100,1,100,12.3
61941,72511,2007/10/18 22:00:23,42.9817,4.5502,,,,,,,,,19.48,-0.169758,0.037127,0011199999999100,1,100,12.3
61941,72511,2007/10/18 23:03:04,42.9829,4.5426,,,,,,,,,19.48,-0.16438,0.035478,0011199999999100,1,100,12.3
61941,72511,2007/10/19 01:00:16,42.9860,4.5267,,,,,,,,,19.4,-0.183925,0.049019,0011199999999100,1,100,12.3
61941,72511,2007/10/19 02:02:08,42.9890,4.5169,,,,,,,,,19.4,-0.214743,0.089867,0011199999999100,3,100,12.3
61941,72511,2007/10/19 03:00:11,42.9932,4.5082,,,,,,,,,19.4,-0.203161,0.134085,0011199999999100,3,100,12.3
61941,72511,2007/10/19 04:00:16,42.9975,4.5003,,,,,,,,,19.4,-0.178224,0.132632,0011199999999100,3,100,12.3
61941,72511,2007/10/19 05:01:39,43.0009,4.4945,,,,,,,,,19.32,-0.128069,0.102651,0011199999999100,1,100,12.3
61941,72511,2007/10/19 06:00:28,43.0041,4.4890,,,,,,,,,19.32,-0.126738,0.100828,0011199999999100,1,100,12.3
61941,72511,2007/10/19 07:00:16,43.0079,4.4843,,,,,,,,,19.32,-0.106516,0.117765,0011199999999100,3,100,12.2
61941,72511,2007/10/19 08:01:00,43.0103,4.4804,,,,,,,,,19.24,-0.087023,0.073235,0011199999999100,1,100,12.2
61941,72511,2007/10/19 09:00:11,43.0117,4.4764,,,,,,,,,19.24,-0.091589,0.043839,0011199999999100,1,100,12.2
61941,72511,2007/10/19 10:00:11,43.0123,4.4713,,,,,,,,,19.16,-0.115185,0.018532,0011199999999100,3,100,12.2
61941,72511,2007/10/19 11:02:40,43.0125,4.4659,,,,,,,,,19.16,-0.117112,0.005932,0011199999999100,1,100,12.2
61941,72511,2007/10/19 12:00:16,43.0131,4.4602,,,,,,,,,19.16,-0.134098,0.019305,0011199999999100,1,100,12.2
61941,72511,2007/10/19 13:00:17,43.0143,4.4545,,,,,,,,,19.16,-0.128697,0.037055,0011199999999100,1,100,12.2
61941,72511,2007/10/19 14:00:58,43.0163,4.4491,,,,,,,,,19.16,-0.120581,0.061079,0011199999999100,3,100,12.2
61941,72511,2007/10/19 15:00:06,43.0179,4.4463,,,,,,,,,19.16,-0.06416,0.050144,0011199999999100,1,100,12.2
61941,72511,2007/10/19 16:00:11,43.0200,4.4432,,,,,,,,,19.16,-0.069909,0.064774,0011199999999100,3,100,12.2
61941,72511,2007/10/19 17:01:34,43.0209,4.4402,,,,,,,,,19.16,-0.06622,0.027172,0011199999999100,1,100,12.2
61941,72511,2007/10/19 18:00:40,43.0214,4.4372,,,,,,,,,19.16,-0.068777,0.015679,0011199999999100,3,100,12.2
61941,72511,2007/10/19 19:02:04,43.0215,4.4334,,,,,,,,,19.08,-0.083854,0.003018,0011199999999100,1,100,12.2